Spokane, WA
on Saturday, December 8, 2012

Saturday
Previous Day Next Day
Daily Summary
 ActualAverageRecord
Temperature
Mean Temperature °F 28°F  
Max Temperature 35°F 33°F 56°F (1938)
Min Temperature 19°F 23°F -11°F (1972)
Degree Days
Heating Degree Days 38 37  
Month to date heating degree days 210 289  
Since 1 July heating degree days 1595 1956  
Cooling Degree Days 0 0  
Month to date cooling degree days 0 0  
Year to date cooling degree days 535 450  
Moisture
Dew Point 19°F   
Average Humidity 65    
Maximum Humidity 92    
Minimum Humidity 38    
Precipitation
Precipitation 0.00 in 0.08 in 0.90 in (1971)
Month to date precipitation 0.86 0.67  
Year to date precipitation 19.60 14.93  
Snow
Snow 0.00 in 0.40 in 7.80 in (1971)
Month to date snowfall T 3.3  
Since 1 July snowfall 5.9 10.8  
Snow Depth 0.00 in   
Wind
Wind Speed 6 mph   
Max Wind Speed 20 mph   
Max Gust Speed 23 mph   
Visibility 10 miles   
Events     

Key: T is trace of precipitation, MM is missing value
Source: NWS Daily Summary
Time(PST)TemperatureDew PointHumidity Pressure Visibility Wind DirectionWind SpeedGust SpeedPrecipitationEvents Conditions
12:53 AM 27.0°F 24.1°F 89% 29.96 in 10.0 miles West 15.0 mph - N/A   Scattered Clouds
1:53 AM 28.0°F 21.9°F 78% 29.99 in 10.0 miles WNW 5.8 mph - N/A   Overcast
2:53 AM 24.8°F 21.2°F 86% 29.95 in 10.0 miles West 9.2 mph - N/A   Scattered Clouds
3:53 AM 24.8°F 19.4°F 80% 29.96 in 10.0 miles West 8.1 mph - N/A   Partly Cloudy
4:53 AM 24.1°F 19.0°F 81% 30.04 in 10.0 miles WSW 5.8 mph - N/A   Partly Cloudy
5:53 AM 23.0°F 19.0°F 85% 30.07 in 10.0 miles WSW 8.1 mph - N/A   Clear
6:53 AM 21.0°F 18.0°F 88% 30.09 in 10.0 miles WSW 8.1 mph - N/A   Partly Cloudy
7:53 AM 23.0°F 19.0°F 85% 30.12 in 10.0 miles SW 6.9 mph - N/A   Scattered Clouds
8:53 AM 25.0°F 21.0°F 85% 30.13 in 10.0 miles SW 6.9 mph - N/A   Scattered Clouds
9:53 AM 28.0°F 21.0°F 75% 30.16 in 10.0 miles SSW 6.9 mph - N/A   Scattered Clouds
10:53 AM 30.0°F 21.0°F 69% 30.16 in 10.0 miles West 8.1 mph - N/A   Mostly Cloudy
11:53 AM 32.0°F 19.9°F 61% 30.15 in 10.0 miles West 6.9 mph - N/A   Scattered Clouds
12:53 PM 34.0°F 17.1°F 50% 30.15 in 10.0 miles West 6.9 mph - N/A   Scattered Clouds
1:53 PM 35.1°F 12.9°F 40% 30.16 in 10.0 miles West 8.1 mph - N/A   Scattered Clouds
2:53 PM 34.0°F 16.0°F 48% 30.18 in 10.0 miles West 10.4 mph - N/A   Mostly Cloudy
3:53 PM 30.9°F 17.1°F 57% 30.21 in 10.0 miles West 5.8 mph - N/A   Mostly Cloudy
4:53 PM 28.4°F 17.6°F 64% 30.15 in 10.0 miles NE 3.5 mph - N/A   Scattered Clouds
5:53 PM 28.0°F 19.0°F 69% 30.25 in 10.0 miles Calm Calm - N/A   Mostly Cloudy
6:53 PM 27.0°F 19.0°F 72% 30.27 in 10.0 miles Calm Calm - N/A   Mostly Cloudy
7:53 PM 28.9°F 17.1°F 61% 30.29 in 10.0 miles North 3.5 mph - N/A   Mostly Cloudy
8:53 PM 25.0°F 19.0°F 78% 30.30 in 10.0 miles WSW 3.5 mph - N/A   Mostly Cloudy
9:53 PM 21.9°F 18.0°F 85% 30.32 in 10.0 miles West 3.5 mph - N/A   Partly Cloudy
10:53 PM 21.0°F 17.1°F 85% 30.33 in 10.0 miles WSW 3.5 mph - N/A   Scattered Clouds
11:53 PM 19.9°F 17.1°F 89% 30.34 in 10.0 miles WSW 3.5 mph - N/A   Partly Cloudy
Moon Phase
Dec. 08 Dec. 13 Dec. 20 Dec. 28 Jan. 04
Sunrise:07:25 AM (PST) Moon Rise:01:37 AM (PST)12/8
Sunset:03:58 PM (PST) Moon Set:12:47 PM (PST)12/8

Copyright © 2014 The Weather Underground, Inc.